[[{"header":{"parameterUnit":"m.s-1","parameterCategory":1,"la1":30.2991,"la2":30.254,"lo1":-89.0895,"lo2":-89.0444,"dy":0.0017,"dx":0.0017,"nx":28,"ny":28,"refTime":"2023-11-04T21:00:00:Z","depth":0,"parameterNumber":2,"parameterNumberName":"U-component_of_WINDS"},"data":[0,0,0,0,0,0,0,0,0,0,0,0,0,0,0,0,0,0,0,0,0,0,0,0,0,0,0,0,0,0,0,0,0,0,0,0,0,0,0,0,0,0,0,0,0,0,0,0,0,0,0,0,0,0,0,0,0,0,-0.0413,-0.0414,0,-0.0425,-0.0426,-0.0426,-0.038,-0.0378,-0.0377,-0.0376,-0.0389,-0.039,-0.0392,0,0,0,0,0,0,0,0,0,0,0,0,0,-0.0351,-0.0352,-0.0413,-0.0414,-0.0414,-0.0425,-0.0426,-0.0426,-0.038,-0.0378,-0.0377,-0.0375,-0.0388,-0.039,-0.0392,0,0,0,0,0,0,0,0,0,0,0,0,0,-0.0372,-0.0353,-0.0413,-0.0392,-0.039,-0.0425,-0.0426,-0.0426,-0.038,-0.0378,-0.0376,-0.0374,-0.0388,-0.039,-0.0392,-0.0448,0,0,-0.04,-0.0401,0,0,0,0,0,0,0,0,-0.0371,-0.0374,-0.0395,-0.0394,-0.0392,-0.0399,-0.0408,-0.0433,-0.0381,-0.0384,-0.0376,-0.0373,-0.0394,-0.0396,-0.0402,-0.0449,-0.045,-0.04,-0.0401,-0.0403,-0.0403,0,0,0,0,0,0,0,-0.0369,-0.0373,-0.0418,-0.0396,-0.0394,-0.0382,-0.0383,-0.0413,-0.04,-0.0384,-0.038,-0.0382,-0.0393,-0.04,-0.0402,-0.045,-0.04,-0.0402,-0.0404,-0.0405,-0.0542,-0.0544,0,0,0,0,0,0,-0.0371,-0.0373,-0.0418,-0.0419,-0.0376,-0.0385,-0.0386,-0.0399,-0.04,-0.0398,-0.0384,-0.038,-0.0397,-0.04,-0.0403,-0.0468,-0.0402,-0.0405,-0.0406,-0.054,-0.0542,-0.0545,0,0,0,0,0,0,-0.0369,-0.0375,-0.0417,-0.0395,-0.0399,-0.0388,-0.0403,-0.04,-0.0408,-0.04,-0.0398,-0.0394,-0.0395,-0.0399,-0.0437,-0.0468,-0.0406,-0.0408,-0.0537,-0.054,-0.0543,-0.0599,0,0,0,0,0,0,-0.0368,-0.0375,-0.0396,-0.0395,-0.0401,-0.0452,-0.0405,-0.0402,-0.0412,-0.0407,-0.0409,-0.0408,-0.0394,-0.0434,-0.0439,-0.047,-0.041,-0.0534,-0.0539,-0.0542,-0.0594,-0.0604,-0.0612,0,0,0,0,0,-0.0366,-0.0412,-0.0398,-0.0403,-0.0427,-0.0454,-0.0457,-0.044,-0.0415,-0.0436,-0.0431,-0.0407,-0.0463,-0.0438,-0.0444,-0.0476,-0.0532,-0.0537,-0.0542,-0.0591,-0.0602,-0.0612,0,0,0,0,0,0,-0.0418,-0.0412,-0.0396,-0.0443,-0.0449,-0.0446,-0.0472,-0.0453,-0.0467,-0.0462,-0.0441,-0.0441,-0.0483,-0.0483,-0.0455,-0.0529,-0.0493,-0.05,-0.0528,-0.0539,-0.0547,-0.0547,-0.0412,0,0,0,0,0,-0.0434,-0.0456,-0.045,-0.0492,-0.0496,-0.0484,-0.0495,-0.0481,-0.0487,-0.049,-0.0487,-0.0494,-0.0513,-0.0526,-0.0543,-0.0594,-0.0593,-0.0619,-0.0627,-0.0634,-0.064,-0.0667,-0.0678,-0.0561,-0.0561,-0.0561,0,0,-0.047,-0.0469,-0.0484,-0.0503,-0.0506,-0.0529,-0.0486,-0.0513,-0.053,-0.0494,-0.0529,-0.0528,-0.0533,-0.0578,-0.0598,-0.0579,-0.0672,-0.0641,-0.0646,-0.0648,-0.0673,-0.0684,-0.0694,-0.0564,-0.0564,-0.0563,0,0,-0.0545,-0.0547,-0.0582,-0.0586,-0.0591,-0.0582,-0.0591,-0.059,-0.0588,-0.0623,-0.0596,-0.0615,-0.0649,-0.0653,-0.066,-0.0737,-0.0715,-0.0743,-0.0788,-0.0814,-0.0823,-0.0831,-0.0858,-0.0868,-0.0748,-0.0749,-0.0749,0,-0.0589,-0.0622,-0.0603,-0.0631,-0.064,-0.0607,-0.0642,-0.0647,-0.0657,-0.0664,-0.0643,-0.0683,-0.0685,-0.073,-0.0748,-0.0755,-0.0764,-0.0743,-0.0824,-0.0832,-0.0839,-0.0864,-0.0874,-0.0752,-0.0752,-0.0751,-0.0751,0,-0.0675,-0.0699,-0.0726,-0.0737,-0.0748,-0.078,-0.0765,-0.0779,-0.0764,-0.0757,-0.0793,-0.0794,-0.081,-0.0819,-0.0806,-0.0862,-0.0851,-0.0827,-0.0791,-0.0853,-0.0877,-0.0887,-0.0757,-0.0755,-0.0754,-0.0754,0,0,-0.0785,-0.0783,-0.0794,-0.0797,-0.08,-0.0818,-0.0847,-0.0862,-0.0875,-0.0883,-0.0907,-0.0935,-0.0913,-0.0921,-0.0907,-0.093,-0.0989,-0.0903,-0.0903,-0.0919,-0.1051,-0.1069,-0.1081,-0.0975,-0.0977,-0.0978,-0.1051,0,-0.086,-0.091,-0.0892,-0.0944,-0.0965,-0.0934,-0.0959,-0.0963,-0.0958,-0.0975,-0.0968,-0.0988,-0.0958,-0.0962,-0.0983,-0.0978,-0.1016,-0.0972,-0.0997,-0.0998,-0.0997,-0.1093,-0.1112,-0.118,-0.106,-0.1061,-0.1062,0,-0.0953,-0.0964,-0.1017,-0.1015,-0.1023,-0.1047,-0.1059,-0.1075,-0.1079,-0.1073,-0.1081,-0.1062,-0.1091,-0.1054,-0.1093,-0.1064,-0.1073,-0.1071,-0.1073,-0.1076,-0.1035,-0.1098,-0.1202,-0.1212,-0.1077,-0.1076,-0.1075,0,-0.1028,-0.1056,-0.1091,-0.1095,-0.1094,-0.1111,-0.1111,-0.1112,-0.1122,-0.1132,-0.1139,-0.1152,-0.116,-0.1171,-0.1156,-0.1131,-0.1197,-0.1159,-0.1193,-0.1194,-0.1209,-0.1208,-0.1316,-0.1215,-0.1215,-0.1214,-0.1214,0,-0.1113,-0.1147,-0.1124,-0.1146,-0.1183,-0.1162,-0.1199,-0.1195,-0.1197,-0.1217,-0.1191,-0.1211,-0.119,-0.1207,-0.1196,-0.1229,-0.1233,-0.1229,-0.1226,-0.1232,-0.1232,-0.1238,-0.1233,-0.1217,-0.1216,-0.1216,-0.1215,0,-0.1203,-0.1189,-0.1225,-0.122,-0.122,-0.1247,-0.1242,-0.1262,-0.1254,-0.128,-0.1285,-0.1272,-0.1291,-0.1277,-0.1297,-0.1289,-0.1333,-0.1323,-0.1332,-0.1329,-0.1364,-0.1361,-0.148,-0.1494,-0.1383,-0.1384,-0.1385,0,-0.1258,-0.1283,-0.128,-0.1292,-0.1293,-0.1312,-0.1322,-0.1302,-0.1313,-0.1318,-0.1337,-0.1354,-0.1367,-0.1399,-0.1391,-0.1406,-0.1396,-0.1436,-0.1398,-0.1403,-0.1396,-0.1395,-0.1397,-0.1444,-0.1446,-0.1447,-0.1448,0,-0.1358,-0.1349,-0.1364,-0.1376,-0.1388,-0.1397,-0.1403,-0.1414,-0.1394,-0.1408,-0.1426,-0.1436,-0.1455,-0.1472,-0.1484,-0.1483,-0.1463,-0.146,-0.1468,-0.1475,-0.1479,-0.1477,-0.1353,-0.1457,-0.1456,-0.1456,-0.1455,-0.1455,-0.1432,-0.1452,-0.1453,-0.147,-0.1472,-0.1479,-0.1497,-0.149,-0.1506,-0.1519,-0.1507,-0.1529,-0.1531,-0.1544,-0.1547,-0.1564,-0.1548,-0.156,-0.1564,-0.1567,-0.1572,-0.1476,-0.1566,-0.1566,-0.1566,-0.1566,-0.1565,0,-0.153,-0.1528,-0.1544,-0.1553,-0.1567,-0.1544,-0.155,-0.1563,-0.1583,-0.1586,-0.1599,-0.162,-0.1636,-0.1629,-0.1643,-0.1659,-0.1649,-0.1663,-0.1662,-0.1662,-0.1586,-0.1577,-0.167,-0.167,-0.167,-0.167,-0.167,-0.167,-0.1582,-0.1615,-0.1607,-0.1641,-0.1639,-0.1661,-0.1666,-0.1671,-0.1674,-0.1699,-0.1712,-0.1707,-0.1706,-0.172,-0.1733,-0.1731,-0.1737,-0.1755,-0.1749,-0.1678,-0.1668,-0.1658,-0.1649,-0.1756,-0.1756,-0.1823,-0.1824,-0.1824]},{"header":{"parameterUnit":"m.s-1","parameterCategory":1,"la1":30.2991,"la2":30.254,"lo1":-89.0895,"lo2":-89.0444,"dy":0.0017,"dx":0.0017,"nx":28,"ny":28,"refTime":"2023-11-04T21:00:00:Z","depth":0,"parameterNumber":3,"parameterNumberName":"V-component_of_WINDS"},"data":[0,0,0,0,0,0,0,0,0,0,0,0,0,0,0,0,0,0,0,0,0,0,0,0,0,0,0,0,0,0,0,0,0,0,0,0,0,0,0,0,0,0,0,0,0,0,0,0,0,0,0,0,0,0,0,0,0,0,1.4974,1.4974,0,1.4939,1.4939,1.4938,1.4943,1.4943,1.4944,1.4944,1.4903,1.4902,1.49,0,0,0,0,0,0,0,0,0,0,0,0,0,1.504,1.5039,1.4974,1.4974,1.4973,1.4939,1.4939,1.4938,1.4942,1.4943,1.4944,1.4945,1.4904,1.4902,1.49,0,0,0,0,0,0,0,0,0,0,0,0,0,1.5009,1.5039,1.4974,1.4972,1.4971,1.4939,1.4939,1.4938,1.4942,1.4943,1.4944,1.4945,1.4904,1.4902,1.49,1.4867,0,0,1.4892,1.4891,0,0,0,0,0,0,0,0,1.5011,1.5006,1.4972,1.4972,1.4971,1.4946,1.4947,1.4914,1.4942,1.4953,1.4944,1.4945,1.4916,1.4913,1.4904,1.4865,1.4863,1.4892,1.489,1.4889,1.4889,0,0,0,0,0,0,0,1.5013,1.5008,1.496,1.4972,1.4971,1.497,1.4967,1.4941,1.493,1.4952,1.4952,1.4948,1.4916,1.4907,1.4903,1.4863,1.4892,1.489,1.4888,1.4887,1.4793,1.4792,0,0,0,0,0,0,1.5016,1.501,1.4961,1.4959,1.4994,1.4969,1.4965,1.4953,1.493,1.4928,1.4948,1.4949,1.4911,1.4906,1.4902,1.4861,1.4889,1.4887,1.4886,1.4794,1.4793,1.4792,0,0,0,0,0,0,1.5018,1.5012,1.4963,1.4985,1.4978,1.4967,1.4954,1.4952,1.4943,1.4927,1.4925,1.494,1.4911,1.4905,1.4876,1.486,1.4886,1.4884,1.4795,1.4794,1.4792,1.478,0,0,0,0,0,0,1.502,1.5013,1.5001,1.4984,1.4977,1.4938,1.4953,1.4951,1.4939,1.494,1.492,1.4917,1.4911,1.4879,1.4873,1.4857,1.4882,1.4797,1.4795,1.4793,1.4781,1.4778,1.4775,0,0,0,0,0,1.5022,1.4998,1.5,1.4995,1.4963,1.4937,1.4933,1.4929,1.4938,1.4925,1.4915,1.4918,1.4863,1.4876,1.4869,1.4852,1.4797,1.4795,1.4793,1.4783,1.4778,1.4775,0,0,0,0,0,0,1.5011,1.4996,1.4998,1.4969,1.4955,1.4938,1.4922,1.4924,1.4906,1.4907,1.4901,1.4896,1.4866,1.4856,1.4871,1.4818,1.4831,1.4827,1.4826,1.4822,1.4818,1.482,1.488,0,0,0,0,0,1.5006,1.4988,1.4975,1.495,1.4943,1.4934,1.4923,1.4921,1.4905,1.4899,1.4887,1.487,1.4849,1.4835,1.4815,1.4781,1.4775,1.4765,1.4762,1.4759,1.4755,1.4735,1.473,1.4784,1.4784,1.4784,0,0,1.4994,1.4983,1.4972,1.4948,1.4936,1.4917,1.4929,1.4907,1.4892,1.4895,1.4866,1.4857,1.4837,1.4805,1.479,1.4796,1.474,1.4756,1.4754,1.4752,1.4732,1.4727,1.4722,1.4782,1.4783,1.4783,0,0,1.4961,1.4952,1.493,1.4919,1.4903,1.4897,1.4891,1.4875,1.4869,1.4841,1.4842,1.4823,1.4787,1.4773,1.4762,1.4724,1.4725,1.4718,1.47,1.468,1.4676,1.4672,1.4657,1.4652,1.4714,1.4714,1.4714,0,1.4947,1.4919,1.4918,1.4896,1.4885,1.4888,1.4865,1.4853,1.483,1.4822,1.4829,1.4784,1.4772,1.4735,1.4726,1.4717,1.4709,1.4719,1.4677,1.4673,1.4669,1.4655,1.4649,1.4714,1.4714,1.4714,1.4714,0,1.4903,1.4883,1.4867,1.4846,1.4833,1.481,1.4804,1.479,1.4789,1.4782,1.4752,1.4738,1.4714,1.4706,1.4704,1.4669,1.4673,1.4679,1.4691,1.4663,1.4649,1.4644,1.4712,1.4713,1.4713,1.4713,0,0,1.4861,1.4841,1.4834,1.4825,1.4807,1.4791,1.4768,1.4747,1.4735,1.4719,1.4698,1.4668,1.4674,1.466,1.4657,1.464,1.4609,1.4648,1.4647,1.464,1.4567,1.4561,1.4555,1.4611,1.461,1.4609,1.4568,0,1.4825,1.4787,1.4784,1.4748,1.4729,1.4733,1.4712,1.4698,1.4691,1.4673,1.4664,1.4642,1.4652,1.4644,1.4627,1.4617,1.4594,1.462,1.4589,1.4588,1.4592,1.4548,1.4542,1.4504,1.4563,1.4562,1.4561,0,1.4778,1.4763,1.4725,1.471,1.4702,1.4684,1.4664,1.4647,1.463,1.4626,1.4612,1.4611,1.4585,1.46,1.4564,1.4581,1.4569,1.4561,1.456,1.4555,1.4571,1.454,1.4493,1.4486,1.4553,1.4554,1.4554,0,1.475,1.4719,1.4692,1.4684,1.4666,1.4653,1.4645,1.463,1.4617,1.4599,1.459,1.4569,1.4557,1.454,1.4532,1.4544,1.4496,1.451,1.449,1.449,1.4477,1.4478,1.4425,1.4473,1.4473,1.4473,1.4473,0,1.4709,1.4685,1.4679,1.4663,1.4636,1.4633,1.4606,1.4598,1.4585,1.4565,1.4567,1.4548,1.4541,1.452,1.4515,1.4484,1.4479,1.4474,1.4472,1.4472,1.4473,1.4462,1.4464,1.4471,1.4472,1.4472,1.4472,0,1.4671,1.4667,1.4638,1.4624,1.4619,1.46,1.4587,1.457,1.4564,1.4539,1.4533,1.4522,1.4498,1.449,1.4461,1.4457,1.4421,1.4422,1.4427,1.4426,1.4405,1.4406,1.4342,1.4332,1.4388,1.4388,1.4387,0,1.4645,1.4627,1.4611,1.4599,1.4591,1.4571,1.4559,1.4555,1.4541,1.4522,1.4506,1.4483,1.4464,1.4425,1.4414,1.4391,1.439,1.437,1.4387,1.4387,1.4388,1.4388,1.4385,1.4365,1.4365,1.4364,1.4364,0,1.4597,1.4596,1.4579,1.456,1.4546,1.453,1.4516,1.4505,1.4499,1.4484,1.446,1.4446,1.4416,1.4392,1.4369,1.4358,1.4359,1.4359,1.4353,1.4352,1.4354,1.4351,1.4416,1.436,1.436,1.4361,1.4361,1.4361,1.4563,1.4547,1.4534,1.4514,1.4503,1.4489,1.4472,1.4465,1.4446,1.4422,1.4421,1.4395,1.4378,1.4348,1.4336,1.4314,1.432,1.4311,1.4308,1.4305,1.4303,1.436,1.431,1.431,1.431,1.431,1.431,0,1.4514,1.4506,1.4488,1.4468,1.4452,1.4458,1.4442,1.4427,1.4405,1.439,1.4372,1.4344,1.4321,1.4308,1.4284,1.4269,1.4269,1.4262,1.4262,1.4259,1.43,1.4307,1.4263,1.4263,1.4263,1.4263,1.4263,1.4263,1.4487,1.446,1.4457,1.4423,1.4415,1.4391,1.4381,1.4367,1.4356,1.4325,1.4306,1.4299,1.4284,1.426,1.4238,1.4234,1.4224,1.4217,1.4214,1.4252,1.4257,1.4261,1.4268,1.4216,1.4216,1.4175,1.4175,1.4174]}]]